Location: Bégole
(43.1574°N, 0.3291°E)
Time: 03:26:53
(UTC+00:00)

Cosmos 2251 Rocket - Pass Details

Date: 28 January 2023
Orbit: 764 x 791 km, 74.0° (Epoch: 27 March)

Event Time Altitude Azimuth Distance (km) Brightness Sun altitude
Rises 18:26:04 0° 202° (SSW) 3,250 7.2 -14.9°
Reaches altitude 10° 18:28:27 10° 204° (SSW) 2,330 6.5 -15.3°
Maximum altitude 18:33:45 79° 290° (WNW) 806 3.7 -16.2°
Drops below altitude 10° 18:39:08 10° 18° (NNE) 2,361 5.8 -17.2°
Enters shadow 18:40:33 - 19° (NNE) 2,907 6.2 -17.5°
